[[{"header":{"parameterUnit":"m.s-1","parameterCategory":1,"la1":30.2991,"la2":30.254,"lo1":-89.0895,"lo2":-89.0444,"dy":0.0017,"dx":0.0017,"nx":28,"ny":28,"refTime":"2023-09-15T21:00:00:Z","depth":0,"parameterNumber":2,"parameterNumberName":"U-component_of_WINDS"},"data":[0,0,0,0,0,0,0,0,0,0,0,0,0,0,0,0,0,0,0,0,0,0,0,0,0,0,0,0,0,0,0,0,0,0,0,0,0,0,0,0,0,0,0,0,0,0,0,0,0,0,0,0,0,0,0,0,0,0,2.1433,2.1433,0,2.1514,2.1515,2.1516,2.1486,2.1485,2.1483,2.1481,2.1564,2.1567,2.1571,0,0,0,0,0,0,0,0,0,0,0,0,0,2.125,2.1254,2.1432,2.1433,2.1435,2.1514,2.1515,2.1516,2.1487,2.1485,2.1482,2.148,2.1562,2.1567,2.1572,0,0,0,0,0,0,0,0,0,0,0,0,0,2.1331,2.1255,2.1432,2.1429,2.143,2.1514,2.1515,2.1517,2.1487,2.1484,2.1482,2.1479,2.1561,2.1567,2.1572,2.1664,0,0,2.159,2.1593,0,0,0,0,0,0,0,0,2.1326,2.1337,2.1429,2.143,2.1431,2.1487,2.1481,2.1566,2.1488,2.1465,2.1481,2.1478,2.154,2.1548,2.1569,2.1667,2.1671,2.1591,2.1594,2.1597,2.1598,0,0,0,0,0,0,0,2.1321,2.1334,2.1465,2.143,2.1431,2.1424,2.1432,2.1497,2.1517,2.1467,2.1465,2.1475,2.154,2.1564,2.1571,2.1672,2.1591,2.1596,2.1599,2.1602,2.185,2.1853,0,0,0,0,0,0,2.1315,2.1329,2.1462,2.1467,2.137,2.1429,2.1439,2.1472,2.1517,2.1521,2.1478,2.1474,2.1555,2.1564,2.1574,2.1684,2.1597,2.1602,2.1606,2.1847,2.1851,2.1854,0,0,0,0,0,0,2.1311,2.1327,2.1459,2.1398,2.1414,2.1435,2.1473,2.1475,2.1498,2.1524,2.1528,2.1498,2.1553,2.1565,2.1642,2.1686,2.1605,2.161,2.1844,2.1848,2.1853,2.1905,0,0,0,0,0,0,2.1306,2.1326,2.1361,2.1399,2.1417,2.1526,2.1476,2.1478,2.1508,2.1504,2.1544,2.1548,2.1552,2.1633,2.1648,2.1693,2.1615,2.184,2.1846,2.1851,2.1899,2.1911,2.1921,0,0,0,0,0,2.1299,2.1372,2.1362,2.1379,2.1461,2.1528,2.1539,2.1542,2.1512,2.1547,2.1564,2.1547,2.1679,2.1641,2.1657,2.1705,2.1837,2.1844,2.1851,2.1895,2.1909,2.192,0,0,0,0,0,0,2.1337,2.1376,2.1367,2.1454,2.1488,2.1523,2.1568,2.1557,2.16,2.1594,2.1596,2.1605,2.1684,2.1702,2.1659,2.1796,2.1753,2.1764,2.1781,2.1795,2.1805,2.1799,2.162,0,0,0,0,0,2.1356,2.1407,2.1439,2.1512,2.153,2.1546,2.1575,2.1575,2.161,2.1625,2.1647,2.1682,2.1732,2.1764,2.1811,2.1902,2.191,2.1943,2.1953,2.1962,2.1971,2.2021,2.2036,2.1877,2.1877,2.1877,0,0,2.1395,2.1422,2.1455,2.152,2.1547,2.16,2.1558,2.1616,2.1656,2.1633,2.1707,2.1725,2.1764,2.1848,2.1886,2.1866,2.2017,2.1971,2.1978,2.1982,2.203,2.2045,2.2058,2.1882,2.1881,2.188,0,0,2.1492,2.1518,2.1583,2.1611,2.1652,2.1662,2.1678,2.1715,2.1727,2.1801,2.1785,2.1832,2.1917,2.1946,2.1972,2.2082,2.2068,2.2097,2.2153,2.2201,2.2214,2.2225,2.2265,2.2279,2.2106,2.2106,2.2106,0,2.1535,2.1615,2.1617,2.1677,2.1707,2.169,2.1755,2.1782,2.1836,2.1857,2.1833,2.194,2.1965,2.2056,2.2083,2.2105,2.2123,2.2092,2.2212,2.2223,2.2234,2.2271,2.2286,2.211,2.2109,2.2109,2.2108,0,2.1666,2.1721,2.1768,2.1822,2.1857,2.1919,2.1931,2.1966,2.1963,2.1976,2.2052,2.2082,2.2135,2.2156,2.2153,2.2247,2.2233,2.2211,2.2168,2.2252,2.2288,2.2302,2.2114,2.2113,2.2112,2.2111,0,0,2.1789,2.1844,2.1861,2.1886,2.193,2.1973,2.2035,2.2088,2.2118,2.2156,2.2208,2.2281,2.2261,2.229,2.229,2.2333,2.2419,2.2305,2.2306,2.2326,2.2525,2.2542,2.2559,2.241,2.2413,2.2415,2.2522,0,2.189,2.1999,2.2004,2.2103,2.2154,2.2139,2.2193,2.2226,2.2241,2.2286,2.2301,2.2353,2.2323,2.234,2.2382,2.24,2.2459,2.2392,2.2458,2.2461,2.2449,2.2577,2.2595,2.2695,2.2536,2.2538,2.254,0,2.2023,2.2067,2.2171,2.2209,2.2231,2.2279,2.2328,2.2372,2.241,2.2417,2.2451,2.2445,2.2508,2.2464,2.2551,2.2505,2.2533,2.2545,2.2549,2.2556,2.2505,2.2587,2.2726,2.2742,2.2562,2.256,2.2559,0,2.2103,2.2188,2.2261,2.2283,2.2329,2.2363,2.2384,2.2419,2.2451,2.2493,2.2514,2.2563,2.259,2.2629,2.2637,2.2603,2.2725,2.268,2.2732,2.2732,2.2759,2.2757,2.2904,2.2776,2.2776,2.2775,2.2775,0,2.2216,2.2281,2.2298,2.2343,2.2415,2.242,2.2491,2.251,2.2541,2.259,2.2579,2.2625,2.2633,2.2681,2.2687,2.2759,2.2771,2.2779,2.278,2.278,2.2779,2.2798,2.2791,2.2779,2.2779,2.2778,2.2777,0,2.2318,2.2332,2.2411,2.2449,2.246,2.2512,2.2544,2.2587,2.26,2.2662,2.2677,2.2698,2.2753,2.2765,2.2831,2.2835,2.2921,2.2915,2.2908,2.2908,2.2959,2.2954,2.3124,2.3147,2.3003,2.3005,2.3006,0,2.2389,2.2439,2.2482,2.2514,2.2537,2.2589,2.2621,2.2628,2.2662,2.271,2.2748,2.2802,2.2846,2.2936,2.2957,2.3007,2.3002,2.3058,2.301,2.3009,2.3004,2.3001,2.3006,2.3068,2.3069,2.3071,2.3072,0,2.2515,2.2519,2.2567,2.2617,2.2657,2.2696,2.2734,2.2761,2.2773,2.2812,2.2869,2.2903,2.2971,2.3026,2.3076,2.3097,2.3087,2.3087,2.3102,2.3102,2.3097,2.3101,2.2934,2.3083,2.3082,2.3081,2.308,2.308,2.2603,2.2647,2.2685,2.2738,2.2768,2.2804,2.2847,2.2866,2.2914,2.297,2.2971,2.3033,2.307,2.3137,2.3162,2.3211,2.3193,2.3215,2.322,2.3225,2.323,2.3089,2.322,2.322,2.3219,2.3219,2.3219,0,2.2729,2.2753,2.2802,2.2856,2.2898,2.2885,2.2926,2.2962,2.3018,2.3053,2.3097,2.3163,2.3216,2.3242,2.3294,2.3329,2.3325,2.3342,2.334,2.3345,2.3243,2.3225,2.3344,2.3344,2.3344,2.3344,2.3344,2.3344,2.2799,2.2872,2.2882,2.297,2.2993,2.3055,2.308,2.3113,2.3142,2.3216,2.326,2.3277,2.3309,2.3363,2.3412,2.3418,2.3438,2.3457,2.3461,2.3365,2.3352,2.334,2.3323,2.3462,2.3462,2.356,2.3561,2.3561]},{"header":{"parameterUnit":"m.s-1","parameterCategory":1,"la1":30.2991,"la2":30.254,"lo1":-89.0895,"lo2":-89.0444,"dy":0.0017,"dx":0.0017,"nx":28,"ny":28,"refTime":"2023-09-15T21:00:00:Z","depth":0,"parameterNumber":3,"parameterNumberName":"V-component_of_WINDS"},"data":[0,0,0,0,0,0,0,0,0,0,0,0,0,0,0,0,0,0,0,0,0,0,0,0,0,0,0,0,0,0,0,0,0,0,0,0,0,0,0,0,0,0,0,0,0,0,0,0,0,0,0,0,0,0,0,0,0,0,0.8848,0.885,0,0.905,0.9052,0.9055,0.9105,0.9103,0.9102,0.9101,0.9314,0.9321,0.9328,0,0,0,0,0,0,0,0,0,0,0,0,0,0.851,0.8516,0.8848,0.885,0.8853,0.905,0.9052,0.9055,0.9105,0.9103,0.9102,0.91,0.9312,0.932,0.9329,0,0,0,0,0,0,0,0,0,0,0,0,0,0.8679,0.8518,0.8847,0.8901,0.8908,0.9049,0.9053,0.9056,0.9105,0.9103,0.9101,0.9099,0.9309,0.9319,0.933,0.9434,0,0,0.9362,0.9366,0,0,0,0,0,0,0,0,0.8669,0.8691,0.8891,0.8898,0.8906,0.905,0.9012,0.9183,0.9106,0.903,0.9101,0.9098,0.9228,0.9245,0.9288,0.9444,0.9453,0.9362,0.9369,0.9373,0.9376,0,0,0,0,0,0,0,0.8657,0.8683,0.8928,0.8894,0.8903,0.8917,0.8939,0.9044,0.9139,0.9037,0.9041,0.9064,0.9232,0.9278,0.9293,0.9456,0.9362,0.9371,0.9378,0.9382,0.9707,0.9709,0,0,0,0,0,0,0.8636,0.8673,0.8922,0.8934,0.878,0.8924,0.8949,0.9006,0.9137,0.9155,0.9065,0.9065,0.9261,0.9281,0.9301,0.9432,0.9373,0.9383,0.9389,0.9705,0.9708,0.971,0,0,0,0,0,0,0.8628,0.8657,0.8913,0.8805,0.8838,0.8932,0.8996,0.9011,0.9056,0.9159,0.9176,0.9094,0.926,0.9286,0.94,0.944,0.9388,0.9397,0.9702,0.9706,0.9709,0.9693,0,0,0,0,0,0,0.8618,0.8654,0.8694,0.8805,0.8844,0.9007,0.8998,0.9016,0.9073,0.9075,0.9191,0.9208,0.9261,0.9384,0.941,0.9453,0.9405,0.9699,0.9703,0.9708,0.969,0.9696,0.97,0,0,0,0,0,0.8606,0.8683,0.8696,0.8725,0.8895,0.901,0.9032,0.9089,0.9076,0.9118,0.9183,0.9204,0.943,0.9395,0.9425,0.9472,0.9697,0.9702,0.9707,0.9688,0.9695,0.97,0,0,0,0,0,0,0.8577,0.8699,0.8714,0.8829,0.8908,0.9018,0.9072,0.9094,0.9181,0.9179,0.9249,0.9274,0.9383,0.9439,0.9397,0.9579,0.9564,0.9575,0.9539,0.9546,0.955,0.9535,0.9414,0,0,0,0,0,0.8583,0.8665,0.8767,0.8859,0.8897,0.8977,0.903,0.9066,0.9152,0.9187,0.9261,0.9345,0.9435,0.9493,0.9582,0.9698,0.9724,0.9744,0.9749,0.9753,0.9763,0.9828,0.9838,0.9728,0.9728,0.9728,0,0,0.8599,0.8675,0.8723,0.8855,0.8921,0.9005,0.9006,0.9095,0.9158,0.9201,0.9312,0.9369,0.9468,0.9582,0.9637,0.9632,0.9798,0.9759,0.9761,0.977,0.9834,0.9844,0.9854,0.9732,0.9731,0.973,0,0,0.867,0.8735,0.8819,0.8884,0.8982,0.9034,0.9054,0.916,0.9198,0.931,0.9344,0.9421,0.9574,0.9643,0.9698,0.9791,0.9814,0.9818,0.9844,0.9907,0.9915,0.9924,0.9957,0.9969,0.9827,0.9827,0.9827,0,0.8678,0.8804,0.8859,0.8946,0.9004,0.9043,0.9128,0.9189,0.9312,0.9352,0.9344,0.9536,0.9605,0.9736,0.9759,0.9802,0.9827,0.9807,0.9909,0.9918,0.9926,0.9959,0.9972,0.9827,0.9827,0.9827,0.9827,0,0.8808,0.8895,0.8951,0.9065,0.9129,0.9215,0.9284,0.9342,0.9372,0.9425,0.9539,0.9622,0.9728,0.9761,0.9794,0.9897,0.9891,0.9895,0.9882,0.9936,0.9968,0.9981,0.9827,0.9827,0.9827,0.9827,0,0,0.887,0.9012,0.9032,0.9084,0.9193,0.9263,0.935,0.945,0.9499,0.9582,0.9658,0.9785,0.9789,0.9851,0.9891,0.9945,1.0014,0.9943,0.9946,0.9954,1.0133,1.013,1.0144,1.0028,1.0031,1.0033,1.0125,0,0.8956,0.9111,0.9162,0.9292,0.9373,0.941,0.9486,0.9563,0.9614,0.9691,0.9749,0.9838,0.9836,0.9874,0.9929,0.9994,1.0051,0.9988,1.0101,1.0105,1.0077,1.0161,1.0159,1.0241,1.0138,1.014,1.0142,0,0.9077,0.9159,0.9295,0.9393,0.943,0.9497,0.9592,0.9665,0.9753,0.9786,0.9853,0.9888,0.9982,0.996,1.0091,1.0046,1.0096,1.0134,1.0138,1.0153,1.0128,1.0178,1.0269,1.0282,1.0162,1.0161,1.0159,0,0.9109,0.9253,0.9354,0.9397,0.9514,0.956,0.9611,0.9696,0.9753,0.9837,0.9874,0.9968,1.0021,1.0093,1.0153,1.0132,1.0278,1.0262,1.0309,1.0308,1.0341,1.0338,1.0442,1.037,1.0369,1.0369,1.0369,0,0.92,0.9283,0.9369,0.9431,0.9525,0.9583,0.9674,0.9728,0.9802,0.9876,0.9914,0.9983,1.0056,1.0135,1.0182,1.0283,1.0306,1.0337,1.0349,1.0334,1.0331,1.0369,1.0365,1.0373,1.0372,1.0371,1.0371,0,0.9253,0.9314,0.9426,0.9526,0.9553,0.9617,0.9704,0.9766,0.9817,0.991,0.9935,1.0017,1.0111,1.0176,1.0299,1.033,1.0439,1.045,1.0409,1.0415,1.0459,1.0454,1.0593,1.0614,1.0526,1.0527,1.0527,0,0.9308,0.9372,0.9477,0.9528,0.9578,0.966,0.9717,0.9776,0.9835,0.9937,0.9987,1.0083,1.0163,1.0312,1.0383,1.0476,1.049,1.0532,1.0505,1.0488,1.0492,1.0488,1.0494,1.0537,1.0537,1.0538,1.0538,0,0.9399,0.9425,0.9505,0.9594,0.966,0.9735,0.9809,0.9849,0.9921,0.9985,1.008,1.0142,1.0264,1.036,1.0459,1.0513,1.0539,1.0546,1.0562,1.0549,1.0523,1.0538,1.0421,1.0543,1.0543,1.0542,1.0542,1.0542,0.9456,0.9514,0.9596,0.9683,0.9745,0.9813,0.9875,0.9933,1.0013,1.0115,1.0146,1.0245,1.0329,1.0464,1.052,1.0599,1.0596,1.0619,1.0626,1.0631,1.063,1.0508,1.0617,1.0617,1.0617,1.0617,1.0617,0,0.9549,0.9603,0.9682,0.9784,0.9852,0.9866,0.9949,1.0006,1.0092,1.0167,1.0244,1.0353,1.0444,1.0521,1.0616,1.0665,1.0679,1.0688,1.0686,1.0698,1.0627,1.0604,1.0675,1.0675,1.0675,1.0675,1.0675,1.0675,0.9606,0.9705,0.974,0.987,0.9924,1.0019,1.0065,1.0128,1.0188,1.0307,1.0383,1.0431,1.0507,1.0608,1.0692,1.0713,1.0746,1.0753,1.0776,1.071,1.0703,1.0697,1.0675,1.076,1.076,1.084,1.0841,1.0841]}]]